Weerstation Grootegast  Weerstation Grootegast


15 daagse weersverwachting Innsbruck (AT)

  • Overzicht
  • Per uur
  • 15 dagen
  • Extra
  • Vergelijk
  • Kaarten
  • Dagkaart
  • Meer »
  • Info
  • Statistieken
  • Directe link
    Temp 6h Neerslag Wind  
 07:50     17:04    Daglengte: 9:14 Vandaag
13:00
-0°
 
2
19:00
-6°
 
2
 07:48     17:06    Daglengte: 9:18 Morgen
01:00
-10°
 
1
07:00
-8°
 
1
13:00
-2°
0.9 mm
1
warningclass
19:00
-4°
5.3 mm
1
warningclass
 07:47     17:07    Daglengte: 9:20 Dinsdag 26 Jan
01:00
-5°
8.8 mm
1
warningclass
07:00
-5°
9.0 mm
2
warningclass
13:00
-2°
3.3 mm
2
warningclass
19:00
-3°
 
2
 07:46     17:09    Daglengte: 9:23 Woensdag 27 Jan
01:00
-3°
4.2 mm
2
warningclass
07:00
-4°
 
2
Locatie info
Region: Tirol
Latitude: 47.2680°N
Longitude: 11.3913°E
587 masl
Postcode: 6020
Temp/Neerslag /Baro Onweer/DauwpuntSneeuw
    Temp Baro 1h Neerslag Dauwpunt Wind UV BewolkingSneeuw  
 07:50     17:04    Daglengte: 9:14 Vandaag
11:00
-1°
Voelt als: -4.6°
1002.2 hPa
14%
-8.6°
2
Windvlaag: 0.8 m/s
27%110 cm
12:00
-1°
Voelt als: -3.8°
1001.9 hPa
14%
-9.2°
2
Windvlaag: 1.2 m/s
38%110 cm
13:00
-0°
Voelt als: -3.2°
1001.6 hPa
14%
-10.4°
2
Windvlaag: 1.7 m/s
60%109 cm
14:00
-0°
Voelt als: -2.9°
1001.6 hPa
14%
-11.3°
2
Windvlaag: 1.5 m/s
67%109 cm
15:00
-1°
Voelt als: -3.2°
1002.2 hPa
14%
-10.7°
2
Windvlaag: 1.8 m/s
47%109 cm
16:00
-1°
Voelt als: -3.3°
1002.7 hPa
14%
-11.3°
2
Windvlaag: 1.9 m/s
12%109 cm
17:00
-3°
Voelt als: -5.5°
1003.2 hPa
14%
-11.0°
2
Windvlaag: 2.1 m/s
1%109 cm
18:00
-5°
Voelt als: -7.3°
1003.7 hPa
14%
-10.7°
2
Windvlaag: 1.4 m/s
4%109 cm
19:00
-6°
Voelt als: -8.5°
1004.2 hPa
14%
-11.0°
2
Windvlaag: 0.8 m/s
3%109 cm
20:00
-6°
Voelt als: -8.5°
1004.1 hPa
14%
-11.5°
1
Windvlaag: 0.5 m/s
2%109 cm
21:00
-7°
Voelt als: -9.8°
1004.3 hPa
14%
-12.8°
1
Windvlaag: 0.5 m/s
1%109 cm
22:00
-7°
Voelt als: -9.6°
1004.4 hPa
14%
-14.0°
1
Windvlaag: 0.5 m/s
0%108 cm
23:00
-8°
Voelt als: -10.8°
1004.5 hPa
14%
-14.0°
1
Windvlaag: -0.2 m/s
43%108 cm
 07:48     17:06    Daglengte: 9:18 Morgen
00:00
-9°
Voelt als: -11.1°
1004.4 hPa
49%
-15.3°
1
Windvlaag: -0.5 m/s
39%108 cm
01:00
-10°
Voelt als: -12.0°
1004.3 hPa
14%
-15.7°
1
Windvlaag: -0.5 m/s
74%108 cm
02:00
-9°
Voelt als: -11.8°
1004.1 hPa
14%
-16.1°
1
Windvlaag: -0.1 m/s
81%108 cm
03:00
-9°
Voelt als: -10.7°
1003.8 hPa
14%
-16.0°
1
Windvlaag: -0.5 m/s
79%108 cm
04:00
-9°
Voelt als: -10.4°
1003.3 hPa
14%
-16.2°
1
Windvlaag: -0.8 m/s
55%108 cm
05:00
-8°
Voelt als: -9.1°
1003.3 hPa
21%
-14.9°
1
Windvlaag: -1.2 m/s
77%108 cm
06:00
-9°
Voelt als: -9.7°
1004.0 hPa
76%
-13.9°
1
Windvlaag: 0.1 m/s
85%108 cm
07:00
-8°
Voelt als: -9.1°
1004.3 hPa
39%
-13.4°
1
Windvlaag: 1.2 m/s
89%109 cm
08:00
-8°
Voelt als: -10.2°
1004.8 hPa
77%
-13.4°
1
Windvlaag: 1 m/s
83%109 cm
09:00
-8°
Voelt als: -9.2°
1005.2 hPa
41%
-12.9°
1
Windvlaag: 0.6 m/s
88%109 cm
10:00
-5°
Voelt als: -6.9°
1004.9 hPa
36%
-12.2°
1
Windvlaag: 1 m/s
84%110 cm
11:00
-3°
Voelt als: -4.9°
1004.6 hPa
39%
-12.2°
1
Windvlaag: 1.4 m/s
87%111 cm
12:00
-2°
Voelt als: -4.2°
1004.7 hPa 0.9 mm
40%
-11.1°
1
Windvlaag: 1.3 m/s
88%111 cm warningclass
13:00
-2°
Voelt als: -3.8°
1004.7 hPa
41%
-9.1°
1
Windvlaag: 1.7 m/s
88%112 cm
14:00
-2°
Voelt als: -3.8°
1004.9 hPa 1.2 mm
41%
-7.5°
1
Windvlaag: 2 m/s
85%112 cm warningclass
15:00
-2°
Voelt als: -3.9°
1005.6 hPa
43%
-6.6°
1
Windvlaag: 1.7 m/s
84%112 cm
16:00
-2°
Voelt als: -4.0°
1006.4 hPa 1.4 mm
82%
-6.1°
1
Windvlaag: 0.5 m/s
83%113 cm warningclass
17:00
-4°
Voelt als: -5.4°
1007.4 hPa
82%
-7.0°
1
Windvlaag: 0.5 m/s
84%113 cm
18:00
-4°
Voelt als: -5.2°
1008.4 hPa 1.5 mm
82%
-6.6°
1
Windvlaag: 0.7 m/s
88%113 cm warningclass
19:00
-4°
Voelt als: -5.6°
1009.4 hPa 1.2 mm
82%
-6.7°
1
Windvlaag: 1 m/s
88%113 cm warningclass
20:00
-4°
Voelt als: -5.8°
1010.3 hPa 1.3 mm
82%
-6.5°
1
Windvlaag: 0.9 m/s
86%113 cm warningclass
21:00
-4°
Voelt als: -5.8°
1011.2 hPa 1.4 mm
82%
-6.4°
1
Windvlaag: 0.5 m/s
87%113 cm warningclass
22:00
-5°
Voelt als: -6.6°
1012.1 hPa 1.6 mm
82%
-6.8°
1
Windvlaag: 0.7 m/s
88%113 cm warningclass
23:00
-5°
Voelt als: -7.0°
1013.2 hPa 1.5 mm
82%
-6.7°
1
Windvlaag: 0.6 m/s
76%113 cm warningclass
 07:47     17:07    Daglengte: 9:20 Dinsdag 26 Jan
00:00
-5°
Voelt als: -6.8°
1013.9 hPa 1.2 mm
82%
-6.8°
1
Windvlaag: 0 m/s
84%113 cm warningclass
01:00
-5°
Voelt als: -7.1°
1014.6 hPa 1.7 mm
82%
-7.0°
1
Windvlaag: 0.7 m/s
78%113 cm warningclass
02:00
-5°
Voelt als: -7.2°
1015.5 hPa 1.7 mm
82%
-6.9°
2
Windvlaag: 0.3 m/s
63%113 cm warningclass
03:00
-5°
Voelt als: -7.3°
1016.3 hPa 1.3 mm
82%
-6.9°
2
Windvlaag: 0.6 m/s
81%113 cm warningclass
04:00
-6°
Voelt als: -8.4°
1017.0 hPa 1.4 mm
100%
-8.0°
2
Windvlaag: 0.1 m/s
88%113 cm warningclass
05:00
-5°
Voelt als: -8.2°
1017.7 hPa 1.5 mm
100%
-7.9°
2
Windvlaag: -0.4 m/s
85%113 cm warningclass
06:00
-5°
Voelt als: -8.8°
1018.8 hPa 1.4 mm
100%
-7.7°
2
Windvlaag: 0.1 m/s
87%113 cm warningclass
07:00
-5°
Voelt als: -8.5°
1019.7 hPa 1.8 mm
100%
-7.6°
2
Windvlaag: -0 m/s
85%113 cm warningclass
08:00
-5°
Voelt als: -8.9°
1020.7 hPa 1.7 mm
100%
-7.8°
2
Windvlaag: -0.4 m/s
80%113 cm warningclass
09:00
-5°
Voelt als: -8.1°
1021.4 hPa 1.6 mm
100%
-8.0°
2
Windvlaag: -0.6 m/s
54%112 cm warningclass
10:00
-4°
Voelt als: -7.1°
1021.7 hPa
46%
-7.6°
2
Windvlaag: 0.2 m/s
65%112 cm
11:00
-3°
Voelt als: -6.2°
1021.7 hPa
27%
-7.6°
2
Windvlaag: 0.7 m/s
60%113 cm
12:00
-2°
Voelt als: -5.5°
1021.4 hPa
21%
-8.4°
2
Windvlaag: 0.5 m/s
64%113 cm
13:00
-2°
Voelt als: -5.2°
1020.8 hPa
22%
-8.8°
2
Windvlaag: -0.2 m/s
61%113 cm
14:00
-2°
Voelt als: -5.1°
1020.4 hPa
22%
-8.5°
2
Windvlaag: -0.7 m/s
69%113 cm
15:00
-2°
Voelt als: -5.1°
1020.4 hPa
21%
-8.2°
2
Windvlaag: -1 m/s
66%113 cm
16:00
-3°
Voelt als: -6.3°
1020.4 hPa
21%
-8.8°
2
Windvlaag: -1.3 m/s
51%113 cm
17:00
-3°
Voelt als: -6.7°
1020.3 hPa
21%
-10.1°
3
Windvlaag: -0.3 m/s
73%113 cm
18:00
-3°
Voelt als: -6.4°
1020.6 hPa
21%
-9.8°
2
Windvlaag: 0.2 m/s
85%113 cm
19:00
-3°
Voelt als: -6.3°
1021.0 hPa
21%
-9.5°
2
Windvlaag: 0.7 m/s
89%113 cm
20:00
-3°
Voelt als: -6.3°
1020.8 hPa
21%
-9.4°
2
Windvlaag: 1.3 m/s
91%113 cm
21:00
-3°
Voelt als: -6.3°
1020.5 hPa
21%
-9.2°
2
Windvlaag: 1.1 m/s
93%113 cm
22:00
-3°
Voelt als: -6.3°
1020.3 hPa
22%
-9.0°
2
Windvlaag: 0.8 m/s
97%114 cm
23:00
-3°
Voelt als: -6.5°
1020.1 hPa
21%
-8.9°
2
Windvlaag: 0.5 m/s
96%114 cm
 07:46     17:09    Daglengte: 9:23 Woensdag 27 Jan
00:00
-3°
Voelt als: -6.8°
1019.8 hPa
23%
-8.7°
2
Windvlaag: 0.1 m/s
95%114 cm
01:00
-3°
Voelt als: -6.8°
1019.4 hPa 4.2 mm
22%
-8.6°
2
Windvlaag: -0.6 m/s
94%115 cm warningclass
02:00
-3°
Voelt als: -6.2°
1020.4 hPa
24%
-8.3°
2
Windvlaag: 15.8 m/s
80%115 cm
03:00
-3°
Voelt als: -6.8°
1020.2 hPa
24%
-8.2°
2
Windvlaag: 19.4 m/s
82%115 cm warningclass
04:00
-4°
Voelt als: -7.2°
1020.0 hPa
21%
-8.2°
2
Windvlaag: 20.1 m/s
83%115 cm warningclass
05:00
-4°
Voelt als: -7.2°
1020.1 hPa
21%
-8.0°
2
Windvlaag: 19.1 m/s
95%115 cm warningclass
06:00
-4°
Voelt als: -7.4°
1020.2 hPa
73%
-7.9°
2
Windvlaag: 17.1 m/s
96%115 cm warningclass
07:00
-4°
Voelt als: -7.2°
1020.3 hPa
26%
-7.8°
2
Windvlaag: 2.2 m/s
98%116 cm
Temp/Neerslag /Baro Onweer/DauwpuntSneeuw
    Temp Baro Neerslag Dauwpunt Wind BewolkingSneeuw  
 07:50     17:04    Daglengte: 9:14 Vandaag
13:00
-0°
Voelt als: -3.2°
1001.6 hPa   -10.4°
2
60%109 cm
16:00
-1°
Voelt als: -3.3°
1002.7 hPa   -11.3°
2
12%109 cm
19:00
-6°
Voelt als: -8.5°
1004.2 hPa   -11.0°
2
3%109 cm
22:00
-7°
Voelt als: -9.6°
1004.4 hPa   -14.0°
1
0%108 cm
 07:48     17:06    Daglengte: 9:18 Morgen
01:00
-10°
Voelt als: -12.0°
1004.3 hPa   -15.7°
1
74%108 cm
04:00
-9°
Voelt als: -10.4°
1003.3 hPa   -16.2°
1
55%108 cm
07:00
-8°
Voelt als: -9.1°
1004.3 hPa   -13.4°
1
89%109 cm
10:00
-5°
Voelt als: -6.9°
1004.9 hPa   -12.2°
1
84%110 cm
13:00
-2°
Voelt als: -3.8°
1004.7 hPa 0.9 mm -9.1°
1
88%112 cm warningclass
16:00
-2°
Voelt als: -4.0°
1006.4 hPa 2.6 mm -6.1°
1
83%113 cm warningclass
19:00
-4°
Voelt als: -5.6°
1009.4 hPa 2.7 mm -6.7°
1
88%113 cm warningclass
22:00
-5°
Voelt als: -6.6°
1012.1 hPa 4.3 mm -6.8°
1
88%113 cm warningclass
 07:47     17:07    Daglengte: 9:20 Dinsdag 26 Jan
01:00
-5°
Voelt als: -7.1°
1014.6 hPa 4.5 mm -7.0°
1
78%113 cm warningclass
04:00
-6°
Voelt als: -8.4°
1017.0 hPa 4.3 mm -8.0°
2
88%113 cm warningclass
07:00
-5°
Voelt als: -8.5°
1019.7 hPa 4.7 mm -7.6°
2
85%113 cm warningclass
10:00
-4°
Voelt als: -7.1°
1021.7 hPa 3.3 mm -7.6°
2
65%112 cm warningclass
13:00
-2°
Voelt als: -5.2°
1020.8 hPa   -8.8°
2
61%113 cm
16:00
-3°
Voelt als: -6.3°
1020.4 hPa   -8.8°
2
51%113 cm
19:00
-3°
Voelt als: -6.3°
1021.0 hPa   -9.5°
2
89%113 cm
22:00
-3°
Voelt als: -6.3°
1020.3 hPa   -9.0°
2
97%114 cm
 07:46     17:09    Daglengte: 9:23 Woensdag 27 Jan
01:00
-3°
Voelt als: -6.8°
1019.4 hPa 4.2 mm -8.6°
2
94%115 cm warningclass
04:00
-4°
Voelt als: -7.2°
1020.0 hPa   -8.2°
2
83%115 cm warningclass
07:00
-4°
Voelt als: -7.2°
1020.3 hPa   -7.8°
2
98%116 cm
10:00
-1°
Voelt als: -2.2°
1019.3 hPa 13.6 mm -6.3°
1
87% warningclass
13:00
Voelt als: -0.9°
1018.8 hPa 14.0 mm -5.2°
1
85% warningclass
16:00
-1°
Voelt als: -2.1°
1019.3 hPa 15.0 mm -4.3°
1
89% warningclass
19:00
-2°
Voelt als: -3.6°
1020.1 hPa 16.5 mm -3.7°
1
92% warningclass
22:00
-1°
Voelt als: -1.5°
1019.0 hPa 18.3 mm -2.8°
1
92% warningclass
 07:45     17:11    Daglengte: 9:26 Donderdag 28 Jan
01:00
-0°
Voelt als: -0.1°
1017.8 hPa 19.1 mm -2.0°
0
92% warningclass
04:00
-1°
Voelt als: -0.7°
1015.0 hPa 19.9 mm -2.4°
1
92% warningclass
07:00
-1°
Voelt als: -2.0°
1012.3 hPa 21.0 mm -2.9°
1
92% warningclass
10:00
1009.7 hPa 25.4 mm -1.6°
1
92% warningclass
13:00
1007.3 hPa 31.7 mm -0.3°
0
92%
16:00
Voelt als: 1.1°
1006.0 hPa 37.7 mm -0.2°
1
92% warningclass
19:00
Voelt als: 0.8°
1004.8 hPa 39.3 mm -0.2°
1
92% warningclass
22:00
Voelt als: 1.5°
1005.3 hPa 42.6 mm 0.7°
1
92%
 07:44     17:12    Daglengte: 9:28 Vrijdag 29 Jan
01:00
Voelt als: 2.1°
1005.9 hPa 48.6 mm 1.5°
0
92%
04:00
Voelt als: 2.5°
1004.9 hPa 52.3 mm 1.9°
0
92%
07:00
Voelt als: 2.9°
1003.9 hPa 52.7 mm 2.1°
1
92%
10:00
Voelt als: 4.0°
1003.8 hPa 54.0 mm 2.5°
1
91%
13:00
1004.1 hPa 65.4 mm 2.7°
0
90%
16:00
1005.5 hPa 71.4 mm 2.9°
0
91%
19:00
Voelt als: 4.1°
1007.0 hPa 75.1 mm 2.9°
0
92%
22:00
1007.3 hPa   2.3°
0
100%
 07:43     17:14    Daglengte: 9:31 Zaterdag 30 Jan
01:00
1007.4 hPa 84.6 mm 1.9°
0
92%
04:00
Voelt als: 3.3°
1005.8 hPa 91.5 mm 2.2°
1
91%
07:00
Voelt als: 3.1°
1004.4 hPa 95.6 mm 2.5°
1
91%
10:00
Voelt als: 5.1°
1003.4 hPa 96.8 mm 3.0°
1
91%
13:00
1002.2 hPa 96.8 mm 3.3°
1
92%
16:00
Voelt als: 6.0°
999.9 hPa 96.8 mm 3.0°
1
89%
19:00
Voelt als: 4.3°
997.7 hPa 96.8 mm 2.4°
1
86%
22:00
Voelt als: 3.6°
997.3 hPa 96.8 mm 1.7°
1
87%
 07:41     17:15    Daglengte: 9:34 Zondag 31 Jan
01:00
Voelt als: 2.9°
996.9 hPa 96.8 mm 1.2°
1
89%
04:00
Voelt als: 2.5°
996.4 hPa 96.8 mm 1.3°
1
90%
07:00
Voelt als: 2.1°
996.1 hPa 96.8 mm 1.4°
1
92%
10:00
Voelt als: 3.6°
996.6 hPa   2.6°
1
92%
13:00
997.0 hPa 193.7 mm 3.8°
1
92%
19:00
Voelt als: 3.3°
998.7 hPa 195.2 mm 2.8°
0
92%
 07:40     17:17    Daglengte: 9:37 Maandag 01 Feb
01:00
Voelt als: 2.7°
998.3 hPa 197.9 mm 1.9°
0
84%
07:00
998.1 hPa 201.0 mm 0.3°
0
80%
13:00
Voelt als: 4.2°
998.0 hPa 202.7 mm -1.6°
0
80%
19:00
Voelt als: 1.2°
1000.7 hPa 204.4 mm -2.2°
1
75%
 07:39     17:18    Daglengte: 9:39 Dinsdag 02 Feb
01:00
1003.7 hPa   -1.2°
0
98%
07:00
1006.1 hPa 310.0 mm -1.1°
1
92% warningclass
13:00
Voelt als: 5.4°
1016.9 hPa 206.9 mm 5.3°
0
0%
19:00
Voelt als: 4.4°
1017.2 hPa 103.7 mm 3.5°
2
1%
 07:37     17:20    Daglengte: 9:43 Woensdag 03 Feb
01:00
Voelt als: 3.1°
1017.1 hPa 208.8 mm 1.6°
2
1%
07:00
-1°
Voelt als: -1.4°
1014.9 hPa 2.2 mm -2.1°
1
83%
13:00
Voelt als: 4.2°
1013.2 hPa 0.6 mm 2.6°
1
81%
19:00
Voelt als: -0.0°
1015.4 hPa 0.6 mm -0.7°
1
82%
 07:36     17:21    Daglengte: 9:45 Donderdag 04 Feb
01:00
-1°
Voelt als: -2.9°
1016.1 hPa 0.7 mm -2.8°
2
78%
07:00
-1°
Voelt als: -2.6°
1015.7 hPa 0.8 mm -3.2°
1
81%
13:00
Voelt als: 4.4°
1014.0 hPa 1.6 mm 3.0°
1
82%
19:00
Voelt als: 0.2°
1015.9 hPa 1.4 mm -0.0°
1
87%
 07:35     17:23    Daglengte: 9:48 Vrijdag 05 Feb
01:00
-0°
Voelt als: -2.4°
1016.5 hPa 0.6 mm -1.8°
2
86%
07:00
-0°
Voelt als: -2.3°
1015.6 hPa 0.6 mm -2.0°
2
82%
13:00
Voelt als: 4.6°
1013.1 hPa 0.7 mm 3.3°
1
84%
19:00
Voelt als: 1.5°
1014.7 hPa 1.2 mm 0.5°
1
88%
 07:33     17:24    Daglengte: 9:51 Zaterdag 06 Feb
01:00
Voelt als: -1.7°
1015.8 hPa 0.9 mm -1.3°
2
87%
07:00
-1°
Voelt als: -2.4°
1015.5 hPa 0.9 mm -2.1°
1
82%
13:00
Voelt als: 3.9°
1014.0 hPa 0.9 mm 2.5°
0
86%
19:00
Voelt als: 1.0°
1016.1 hPa 1.4 mm 0.3°
0
95%
 07:32     17:26    Daglengte: 9:54 Zondag 07 Feb
01:00
-1°
Voelt als: -2.1°
1017.6 hPa 0.9 mm -2.5°
1
89%
07:00
-2°
Voelt als: -2.7°
1018.0 hPa 0.8 mm -3.5°
1
78%
13:00
Voelt als: 2.5°
1016.7 hPa 0.9 mm 1.5°
1
78%
19:00
-0°
1018.7 hPa 1.6 mm -0.8°
0
87%
 07:30     17:28    Daglengte: 9:58 Maandag 08 Feb
01:00
-2°
Voelt als: -2.0°
1020.0 hPa 1.3 mm -2.9°
1
86%
07:00
-2°
Voelt als: -3.1°
1019.6 hPa 0.8 mm -3.9°
1
81%
  CAPE Lifted Index Hail Supercell Tornado SRH 3km CL BTM PRES CL TOP PRES Swiss DWD icon SMHI TS
 07:50     17:04    Daglengte: 9:14 Vandaag
11:00 0 J/kg 7.9 K 0 % 0 % 0 % 0 m²/s² 0 0 17.41 0
12:00 0 J/kg 8.1 K 0 % 0 % 0 % 0 m²/s² 0 0 16.23 2
13:00 0 J/kg 7.5 K 0 % 0 % 0 % 0 m²/s² 0 0 14.1 3
14:00 0 J/kg 7.1 K 0 % 0 % 0 % 0 m²/s² 0 0 13.04 3
15:00 0 J/kg 6.9 K 0 % 0 % 0 % 0 m²/s² 0 0 11.82 2
16:00 0 J/kg 4.7 K 0 % 0 % 0 % 0 m²/s² 0 0 6.47 0
17:00 0 J/kg 2.7 K 0 % 0 % 0 % 0 m²/s² 0 0 3.75 0
18:00 0 J/kg 1.5 K 0 % 0 % 0 % 0 m²/s² 0 0 2.25 0
19:00 0 J/kg 1.6 K 0 % 0 % 0 % 0 m²/s² 0 0 2.53 0
20:00 0 J/kg 2.2 K 0 % 0 % 0 % 0 m²/s² 0 0 3.55 0
21:00 0 J/kg 2.6 K 0 % 0 % 0 % 0 m²/s² 0 0 4.88 0
22:00 0 J/kg 2.9 K 0 % 0 % 0 % 0 m²/s² 0 0 7.19 0
23:00 0 J/kg 3.1 K 0 % 0 % 0 % 0 m²/s² 0 0 10.9 0
 07:48     17:06    Daglengte: 9:18 Morgen
00:00 0 J/kg 2.7 K 0 % 0 % 0 % 0 m²/s² 0 0 12.12 0
01:00 0 J/kg 2.1 K 0 % 0 % 0 % 0 m²/s² 0 0 11.07 3
02:00 0 J/kg 2.2 K 0 % 0 % 0 % 0 m²/s² 0 0 9.67 3
03:00 0 J/kg 2.6 K 0 % 0 % 0 % 0 m²/s² 0 0 7.22 3
04:00 0 J/kg 2.6 K 0 % 0 % 0 % 0 m²/s² 0 0 3.56 3
05:00 0 J/kg 0.5 K 0 % 0 % 0 % 0 m²/s² 0 0 1.19 3
06:00 0 J/kg -0.1 K 0 % 0 % 0 % 0 m²/s² 0 0 0.92 3
07:00 0 J/kg -0.4 K 0 % 0 % 0 % 0 m²/s² 0 0 0.71 3
08:00 0 J/kg -1.0 K 0 % 0 % 0 % 0 m²/s² 0 0 -0.43 3
09:00 0 J/kg -0.8 K 0 % 0 % 0 % 0 m²/s² 0 0 -0.23 3
10:00 0 J/kg -0.5 K 0 % 0 % 0 % 0 m²/s² 0 0 0.19 3
11:00 12 J/kg -0.2 K 0 % 0 % 0 % 0 m²/s² 0 0 0.43 3
12:00 28 J/kg -0.1 K 0 % 0 % 0 % 0 m²/s² 0 0 0.41 3
13:00 30 J/kg 0.0 K 0 % 0 % 0 % 0 m²/s² 0 0 0.57 3
14:00 24 J/kg 0.0 K 0 % 0 % 0 % 0 m²/s² 0 0 0.69 3
15:00 19 J/kg -0.3 K 0 % 0 % 0 % 0 m²/s² 0 0 0.39 3
16:00 0 J/kg -0.4 K 0 % 0 % 0 % 0 m²/s² 0 0 0.23 3
17:00 0 J/kg -0.5 K 0 % 0 % 0 % 0 m²/s² 0 0 1 3
18:00 0 J/kg -0.3 K 0 % 0 % 0 % 0 m²/s² 0 0 0.42 3
19:00 0 J/kg 0.1 K 0 % 0 % 0 % 0 m²/s² 0 0 0.85 3
20:00 0 J/kg 0.4 K 0 % 0 % 0 % 0 m²/s² 0 0 0.88 71
21:00 0 J/kg 0.6 K 0 % 0 % 0 % 0 m²/s² 0 0 1.2 71
22:00 0 J/kg 1.3 K 0 % 0 % 0 % 0 m²/s² 0 0 1.93 71
23:00 0 J/kg 1.7 K 0 % 0 % 0 % 0 m²/s² 0 0 2.48 71
 07:47     17:07    Daglengte: 9:20 Dinsdag 26 Jan
00:00 0 J/kg 2.2 K 0 % 0 % 0 % 0 m²/s² 0 0 3.52 71
01:00 0 J/kg 2.6 K 0 % 0 % 0 % 0 m²/s² 0 0 6.08 3
02:00 0 J/kg 2.1 K 0 % 0 % 0 % 0 m²/s² 0 0 5.01 2
03:00 0 J/kg 2.0 K 0 % 0 % 0 % 0 m²/s² 0 0 4.4 3
04:00 0 J/kg 1.3 K 0 % 0 % 0 % 0 m²/s² 0 0 2.98 71
05:00 0 J/kg 1.4 K 0 % 0 % 0 % 0 m²/s² 0 0 2.75 85
06:00 0 J/kg 1.9 K 0 % 0 % 0 % 0 m²/s² 0 0 3.22 71
07:00 0 J/kg 1.8 K 0 % 0 % 0 % 0 m²/s² 0 0 3.57 71
08:00 0 J/kg 2.4 K 0 % 0 % 0 % 0 m²/s² 0 0 4.95 71
09:00 0 J/kg 1.4 K 0 % 0 % 0 % 0 m²/s² 0 0 2 71
10:00 0 J/kg 0.0 K 0 % 0 % 0 % 0 m²/s² 0 0 0.6 1
11:00 0 J/kg 0.0 K 0 % 0 % 0 % 0 m²/s² 0 0 0.6 1
12:00 1 J/kg 0.9 K 0 % 0 % 0 % 0 m²/s² 0 0 1.47 1
13:00 7 J/kg 1.9 K 0 % 0 % 0 % 0 m²/s² 0 0 2.5 1
14:00 23 J/kg 2.2 K 0 % 0 % 0 % 0 m²/s² 0 0 2.77 0
15:00 15 J/kg 2.4 K 0 % 0 % 0 % 0 m²/s² 0 0 3.15 0
16:00 1 J/kg 1.5 K 0 % 0 % 0 % 0 m²/s² 0 0 2.07 2
17:00 4 J/kg 1.8 K 0 % 0 % 0 % 0 m²/s² 0 0 2.61 2
18:00 0 J/kg 1.1 K 0 % 0 % 0 % 0 m²/s² 0 0 1.73 3
19:00 0 J/kg 2.0 K 0 % 0 % 0 % 0 m²/s² 0 0 2.84 3
20:00 0 J/kg 2.6 K 0 % 0 % 0 % 0 m²/s² 0 0 3.71 2
21:00 2 J/kg 2.6 K 0 % 0 % 0 % 0 m²/s² 0 0 4.58 3
22:00 4 J/kg 2.1 K 0 % 0 % 0 % 0 m²/s² 0 0 2.97 3
23:00 0 J/kg 1.9 K 0 % 0 % 0 % 0 m²/s² 0 0 2.77 3
 07:46     17:09    Daglengte: 9:23 Woensdag 27 Jan
00:00 0 J/kg 3.4 K 0 % 0 % 0 % 0 m²/s² 0 0 4.54 3
01:00 0 J/kg 3.0 K 0 % 0 % 0 % 0 m²/s² 0 0 3.75 2
02:00 0 J/kg 5.7 K 0 % 0 % 0 % 0 m²/s² 0 0 6.54 2
03:00 0 J/kg 7.1 K 0 % 0 % 0 % 0 m²/s² 0 0 8.81 2
04:00 0 J/kg 9.1 K 0 % 0 % 0 % 0 m²/s² 0 0 12.67 2
05:00 0 J/kg 9.7 K 0 % 0 % 0 % 0 m²/s² 0 0 13.96 3
06:00 0 J/kg 10.3 K 0 % 0 % 0 % 0 m²/s² 0 0 14.65 3
07:00 0 J/kg 11.0 K 0 % 0 % 0 % 0 m²/s² 0 0 15.35 3
Temp Baro Wind Neerslag
  EWN Forecast EWN WRFDA DWD ICON FMI HIRLAM MET Norway GFS
 07:50     17:04    Daglengte: 9:14 Vandaag
13:00 -0.5° 1001.6 hPa 2.2 m/s 0.0 mm -2.2° 999.7 hPa 7.1 m/s 0.4 mm -0.9° 1001.5 hPa 1.9 m/s 0.0 mm 1.9° 1001.2 hPa 3.1 m/s 0.0 mm 0.4° 1001.7 hPa 0.9 m/s 1.2° 1001.7 hPa 1.1 m/s
16:00 -1.3° 1002.7 hPa 1.6 m/s 0.0 mm -6.6° 1000.8 hPa 4.9 m/s 0.4 mm -1.7° 1002.1 hPa 1.3 m/s 0.0 mm 0.7° 1002.6 hPa 2.6 m/s 0.0 mm 0.4° 1002.7 hPa 0.6 m/s -0.7° 1002.6 hPa 0.6 m/s
19:00 -5.8° 1004.2 hPa 1.6 m/s 0.0 mm -4.1° 999.6 hPa 8.0 m/s 0.5 mm -5.6° 1004.7 hPa 1.2 m/s 0.0 mm -2.3° 1004.7 hPa 1.9 m/s 0.0 mm -6.0° 1003.7 hPa 0.9 m/s -7.5° 1005.0 hPa 1.9 m/s
22:00 -7.4° 1004.4 hPa 1.2 m/s 0.0 mm -5.4° 1000.3 hPa 4.5 m/s 0.5 mm -7.6° 1005.3 hPa 1.0 m/s 0.0 mm -6.1° 1007.2 hPa 0.7 m/s 0.0 mm -7.1° 1004.3 hPa 1.0 m/s -9.0° 1005.6 hPa 2.1 m/s
 07:48     17:06    Daglengte: 9:18 Morgen
01:00 -9.6° 1004.3 hPa 1.2 m/s 0.0 mm -12.5° 998.3 hPa 2.9 m/s 0.5 mm -9.2° 1005.0 hPa 0.6 m/s 0.0 mm -7.8° 1007.3 hPa 1.1 m/s 0.0 mm -9.5° 1004.6 hPa 1.0 m/s -9.4° 1004.4 hPa 1.2 m/s
04:00 -8.5° 1003.3 hPa 1.0 m/s 0.0 mm -2.3° 999.1 hPa 1.7 m/s 0.5 mm -9.6° 1003.8 hPa 1.3 m/s 0.0 mm -9.0° 1007.2 hPa 0.8 m/s 0.0 mm -8.0° 1003.5 hPa 0.4 m/s -7.1° 1003.5 hPa 1.6 m/s
07:00 -8.2° 1004.3 hPa 0.7 m/s 0.0 mm -3.0° 997.8 hPa 2.0 m/s 1.3 mm -9.2° 1005.1 hPa 1.0 m/s 0.0 mm -8.5° 1006.7 hPa 0.7 m/s 0.0 mm -8.1° 1005.0 hPa 0.6 m/s -6.2° 1003.5 hPa 1.3 m/s
10:00 -5.3° 1004.9 hPa 1.1 m/s 0.0 mm -0.9° 999.9 hPa 4.9 m/s 5.0 mm -8.2° 1005.6 hPa 1.5 m/s 0.0 mm -4.5° 1004.8 hPa 0.7 m/s 0.0 mm -5.2° 1006.5 hPa 0.7 m/s -2.7° 1004.2 hPa 1.2 m/s
13:00 -2.1° 1004.7 hPa 1.3 m/s 0.9 mm -0.2° 1001.6 hPa 5.6 m/s 12.3 mm -4.4° 1005.4 hPa 1.1 m/s 0.0 mm 2.2° 1002.2 hPa 1.0 m/s 0.0 mm -2.3° 1006.8 hPa 0.4 m/s 0.4° 1003.2 hPa 0.9 m/s
16:00 -2.5° 1006.4 hPa 1.2 m/s 2.6 mm -1.1° 1003.8 hPa 4.7 m/s 17.3 mm -3.6° 1006.5 hPa 1.0 m/s 0.0 mm 1.1° 1004.5 hPa 1.4 m/s 0.0 mm -2.5° 1008.4 hPa 0.2 m/s -0.9° 1004.5 hPa 1.0 m/s
19:00 -4.0° 1009.4 hPa 1.1 m/s 2.7 mm -2.7° 1007.2 hPa 2.3 m/s 20.6 mm -5.3° 1009.7 hPa 0.8 m/s 0.2 mm -0.0° 1007.5 hPa 1.7 m/s 0.0 mm -4.0° 1010.7 hPa 0.4 m/s -2.5° 1008.4 hPa 0.5 m/s
22:00 -4.8° 1012.1 hPa 1.2 m/s 4.3 mm -7.7° 1010.2 hPa 1.2 m/s 21.0 mm -5.8° 1012.7 hPa 1.4 m/s 1.8 mm -1.1° 1010.2 hPa 1.2 m/s 0.0 mm -3.9° 1013.4 hPa 0.3 m/s -2.4° 1011.7 hPa 1.3 m/s
 07:47     17:07    Daglengte: 9:20 Dinsdag 26 Jan
01:00 -4.9° 1014.6 hPa 1.4 m/s 4.5 mm -6.5° 1012.8 hPa 3.1 m/s 21.2 mm -6.0° 1014.9 hPa 1.1 m/s 1.1 mm -1.4° 1014.4 hPa 2.4 m/s 0.0 mm -3.8° 1015.8 hPa 0.3 m/s -2.3° 1014.6 hPa 1.7 m/s
04:00 -5.7° 1017.0 hPa 1.6 m/s 4.3 mm -5.3° 1013.7 hPa 5.4 m/s 21.5 mm -7.1° 1017.4 hPa 1.4 m/s 0.6 mm -4.1° 1017.7 hPa 0.6 m/s -2.6° 1016.7 hPa 1.9 m/s
07:00 -5.2° 1019.7 hPa 2.0 m/s 4.7 mm -3.7° 1015.0 hPa 5.7 m/s 22.0 mm -6.8° 1020.2 hPa 1.8 m/s 2.1 mm -4.2° 1020.2 hPa 1.0 m/s -4.1° 1019.2 hPa 1.7 m/s
10:00 -4.2° 1021.7 hPa 1.8 m/s 3.3 mm -2.6° 1013.2 hPa 6.9 m/s 22.6 mm -6.3° 1023.3 hPa 1.3 m/s 0.5 mm -3.3° 1022.4 hPa 1.0 m/s -2.5° 1021.2 hPa 1.8 m/s
13:00 -1.9° 1020.8 hPa 2.4 m/s 0.0 mm -0.7° 1013.9 hPa 10.3 m/s 24.7 mm -3.3° 1022.2 hPa 0.8 m/s 0.0 mm -1.2° 1021.6 hPa 1.7 m/s -0.9° 1021.3 hPa 1.7 m/s
16:00 -3.1° 1020.4 hPa 2.2 m/s 0.0 mm -0.7° 1013.2 hPa 8.4 m/s 26.0 mm -3.4° 1021.7 hPa 0.9 m/s 0.0 mm -2.7° 1021.4 hPa 1.5 m/s -1.7° 1021.2 hPa 0.5 m/s
19:00 -3.2° 1021.0 hPa 2.1 m/s 0.0 mm -0.8° 1015.0 hPa 12.6 m/s 28.2 mm -5.9° 1023.2 hPa 1.3 m/s 0.0 mm -2.2° 1021.9 hPa 0.8 m/s -6.8° 1024.0 hPa 1.9 m/s
22:00 -3.3° 1020.3 hPa 2.0 m/s 0.0 mm -0.6° 1016.2 hPa 10.9 m/s 30.5 mm -7.1° 1023.0 hPa 1.5 m/s 0.0 mm -2.2° 1021.1 hPa 0.5 m/s -7.7° 1024.4 hPa 1.9 m/s
 07:46     17:09    Daglengte: 9:23 Woensdag 27 Jan
01:00 -3.3° 1019.4 hPa 2.4 m/s 4.2 mm -1.3° 1016.3 hPa 10.6 m/s 34.7 mm -7.6° 1022.9 hPa 1.8 m/s 0.0 mm -2.2° 1020.4 hPa 0.1 m/s -8.7° 1024.1 hPa 1.9 m/s
04:00 -3.8° 1020.0 hPa 2.3 m/s 0.0 mm -1.9° 1015.2 hPa 13.6 m/s 38.3 mm -8.0° 1022.5 hPa 2.0 m/s 0.0 mm -3.1° 1020.2 hPa 0.3 m/s -8.4° 1022.1 hPa 1.9 m/s
07:00 -4.4° 1020.3 hPa 1.7 m/s 0.0 mm -2.2° 1019.4 hPa 8.9 m/s 40.0 mm -7.3° 1022.2 hPa 1.5 m/s 0.0 mm -4.1° 1020.0 hPa 0.5 m/s -6.9° 1022.0 hPa 1.5 m/s
10:00 -1.4° 1019.3 hPa 0.9 m/s 13.6 mm -1.3° 1019.1 hPa 0.9 m/s -2.2° 1021.6 hPa 1.3 m/s 13.6 mm
13:00 0.1° 1018.8 hPa 1.1 m/s 14.0 mm 0.1° 1018.7 hPa 1.1 m/s 0.1° 1019.4 hPa 1.0 m/s 14.0 mm
16:00 -0.8° 1019.3 hPa 1.2 m/s 15.0 mm -1.0° 1019.4 hPa 1.2 m/s 0.8° 1018.7 hPa 0.5 m/s 15.0 mm
19:00 -1.8° 1020.1 hPa 1.4 m/s 16.5 mm -2.0° 1020.0 hPa 1.4 m/s 0.2° 1020.8 hPa 1.0 m/s 16.5 mm
22:00 -1.0° 1019.0 hPa 0.8 m/s 18.3 mm -1.1° 1018.8 hPa 0.8 m/s 0.5° 1021.3 hPa 1.2 m/s 18.3 mm
 07:45     17:11    Daglengte: 9:26 Donderdag 28 Jan
01:00 -0.1° 1017.8 hPa 0.3 m/s 19.1 mm -0.2° 1017.6 hPa 0.2 m/s 1.2° 1020.2 hPa 1.9 m/s 19.1 mm
04:00 -0.7° 1015.0 hPa 0.6 m/s 19.9 mm -0.9° 1014.8 hPa 0.5 m/s 2.1° 1017.7 hPa 1.5 m/s 20.0 mm
07:00 -1.3° 1012.3 hPa 0.9 m/s 21.0 mm -1.7° 1012.0 hPa 0.8 m/s 3.0° 1015.1 hPa 1.9 m/s 21.0 mm
10:00 0.1° 1009.7 hPa 0.6 m/s 25.4 mm -0.3° 1009.5 hPa 0.5 m/s 4.6° 1012.5 hPa 2.1 m/s 25.4 mm
13:00 1.4° 1007.3 hPa 0.3 m/s 31.7 mm 1.0° 1007.0 hPa 0.2 m/s 5.7° 1010.2 hPa 1.9 m/s 31.7 mm
16:00 1.1° 1006.0 hPa 0.6 m/s 37.7 mm 0.7° 1005.6 hPa 0.4 m/s 5.9° 1010.1 hPa 2.1 m/s 37.7 mm
19:00 0.9° 1004.8 hPa 0.8 m/s 39.3 mm 0.4° 1004.2 hPa 0.7 m/s 6.2° 1011.0 hPa 1.3 m/s 39.3 mm
22:00 1.5° 1005.3 hPa 0.5 m/s 42.6 mm 1.1° 1004.9 hPa 0.4 m/s 6.1° 1009.8 hPa 1.6 m/s 42.6 mm
 07:44     17:12    Daglengte: 9:28 Vrijdag 29 Jan
01:00 2.1° 1005.9 hPa 0.3 m/s 48.6 mm 1.8° 1005.6 hPa 0.2 m/s 5.8° 1008.8 hPa 1.8 m/s 48.6 mm
04:00 2.5° 1004.9 hPa 0.4 m/s 52.3 mm 2.2° 1004.8 hPa 0.3 m/s 5.8° 1006.7 hPa 1.3 m/s 52.3 mm
07:00 2.9° 1003.9 hPa 0.5 m/s 52.7 mm 2.6° 1003.9 hPa 0.4 m/s 6.4° 1003.8 hPa 1.8 m/s 52.7 mm
10:00 4.0° 1003.8 hPa 0.5 m/s 54.0 mm 3.8° 1004.1 hPa 0.3 m/s 6.5° 999.9 hPa 2.5 m/s 54.0 mm
13:00 5.1° 1004.1 hPa 0.4 m/s 65.4 mm 5.0° 1004.4 hPa 0.3 m/s 5.8° 1000.6 hPa 1.6 m/s 65.4 mm
16:00 4.7° 1005.5 hPa 0.5 m/s 71.4 mm 4.6° 1005.8 hPa 0.3 m/s 5.4° 1003.1 hPa 1.9 m/s 71.4 mm
19:00 4.1° 1007.0 hPa 0.5 m/s 75.1 mm 4.2° 1007.1 hPa 0.4 m/s 3.6° 1005.3 hPa 1.4 m/s 75.1 mm
22:00 3.9° 1007.3 hPa 0.3 m/s 0.0 mm 3.9° 1007.3 hPa 0.3 m/s
 07:43     17:14    Daglengte: 9:31 Zaterdag 30 Jan
01:00 3.6° 1007.4 hPa 0.4 m/s 84.6 mm 3.6° 1007.5 hPa 0.3 m/s 3.1° 1006.2 hPa 0.9 m/s 84.6 mm
04:00 3.3° 1005.8 hPa 0.6 m/s 91.5 mm 3.4° 1005.8 hPa 0.5 m/s 3.3° 1006.6 hPa 1.6 m/s 91.5 mm
07:00 3.1° 1004.4 hPa 0.8 m/s 95.6 mm 3.1° 1004.0 hPa 0.7 m/s 3.5° 1008.2 hPa 1.8 m/s 95.6 mm
10:00 5.1° 1003.4 hPa 0.8 m/s 96.8 mm 5.2° 1002.8 hPa 0.7 m/s 5.1° 1009.7 hPa 1.4 m/s 96.8 mm
13:00 7.1° 1002.2 hPa 0.7 m/s 96.8 mm 7.2° 1001.6 hPa 0.7 m/s 5.7° 1008.2 hPa 1.0 m/s 96.8 mm
16:00 6.1° 999.9 hPa 1.0 m/s 96.8 mm 6.2° 999.2 hPa 0.9 m/s 5.4° 1006.9 hPa 1.2 m/s 96.8 mm
19:00 5.0° 997.7 hPa 1.2 m/s 96.8 mm 5.1° 996.9 hPa 1.2 m/s 3.7° 1006.5 hPa 1.5 m/s 96.8 mm
22:00 4.3° 997.3 hPa 1.2 m/s 96.8 mm 4.5° 996.6 hPa 1.2 m/s 2.7° 1005.2 hPa 1.0 m/s 96.8 mm
 07:41     17:15    Daglengte: 9:34 Zondag 31 Jan
01:00 3.8° 996.9 hPa 1.3 m/s 96.8 mm 3.9° 996.3 hPa 1.3 m/s 3.0° 1003.0 hPa 1.0 m/s 96.8 mm
04:00 3.2° 996.4 hPa 1.1 m/s 96.8 mm 3.1° 996.0 hPa 1.1 m/s 3.3° 1000.9 hPa 1.7 m/s 96.8 mm
07:00 2.4° 996.1 hPa 0.9 m/s 96.8 mm 2.4° 995.7 hPa 0.8 m/s 2.9° 1000.0 hPa 2.2 m/s 96.8 mm
10:00 3.6° 996.6 hPa 0.7 m/s 96.8 mm 3.5° 996.2 hPa 0.7 m/s 5.3° 1000.0 hPa 0.6 m/s 96.8 mm
13:00 4.7° 997.0 hPa 0.6 m/s 96.9 mm 4.6° 996.8 hPa 0.6 m/s 5.5° 999.0 hPa 1.0 m/s 96.9 mm
19:00 3.3° 998.7 hPa 0.3 m/s 97.9 mm 3.4° 998.6 hPa 0.3 m/s 2.2° 999.4 hPa 0.6 m/s 97.9 mm
 07:40     17:17    Daglengte: 9:37 Maandag 01 Feb
01:00 2.7° 998.3 hPa 0.3 m/s 99.3 mm 2.8° 998.0 hPa 0.3 m/s 1.9° 1002.0 hPa 0.3 m/s 99.3 mm
07:00 1.9° 998.1 hPa 0.3 m/s 100.9 mm 2.0° 997.6 hPa 0.3 m/s 0.6° 1003.7 hPa 0.4 m/s 100.9 mm
13:00 4.2° 998.0 hPa 0.2 m/s 101.4 mm 4.2° 997.4 hPa 0.2 m/s 4.3° 1004.5 hPa 0.6 m/s 101.4 mm
19:00 2.0° 1000.7 hPa 1.1 m/s 102.5 mm 1.9° 999.9 hPa 1.1 m/s 2.6° 1009.7 hPa 0.6 m/s 102.5 mm
 07:39     17:18    Daglengte: 9:39 Dinsdag 02 Feb
01:00 0.7° 1003.7 hPa 0.3 m/s 0.0 mm 0.7° 1003.7 hPa 0.3 m/s
07:00 0.2° 1006.1 hPa 0.6 m/s 103.5 mm 0.4° 1005.0 hPa 0.5 m/s -2.1° 1018.6 hPa 1.2 m/s 103.5 mm
13:00 5.4° 1016.9 hPa 0.4 m/s 103.5 mm 5.4° 1016.9 hPa 0.4 m/s 103.5 mm
19:00 5.7° 1017.2 hPa 1.8 m/s 103.7 mm 5.7° 1017.2 hPa 1.8 m/s 103.7 mm
 07:37     17:20    Daglengte: 9:43 Woensdag 03 Feb
01:00 4.4° 1017.1 hPa 1.7 m/s 104.9 mm 4.4° 1017.1 hPa 1.7 m/s 104.9 mm
07:00 -0.5° 1014.9 hPa 1.0 m/s 2.2 mm
13:00 4.2° 1013.2 hPa 0.8 m/s 0.6 mm
19:00 0.6° 1015.4 hPa 0.9 m/s 0.6 mm
 07:36     17:21    Daglengte: 9:45 Donderdag 04 Feb
01:00 -0.9° 1016.1 hPa 1.6 m/s 0.7 mm
07:00 -0.9° 1015.7 hPa 1.4 m/s 0.8 mm
13:00 4.5° 1014.0 hPa 0.9 m/s 1.6 mm
19:00 1.0° 1015.9 hPa 1.0 m/s 1.4 mm
 07:35     17:23    Daglengte: 9:48 Vrijdag 05 Feb
01:00 -0.2° 1016.5 hPa 1.8 m/s 0.6 mm
07:00 -0.2° 1015.6 hPa 1.7 m/s 0.6 mm
13:00 4.9° 1013.1 hPa 1.0 m/s 0.7 mm
19:00 1.6° 1014.7 hPa 0.8 m/s 1.2 mm
 07:33     17:24    Daglengte: 9:51 Zaterdag 06 Feb
01:00 0.0° 1015.8 hPa 1.5 m/s 0.9 mm
07:00 -0.6° 1015.5 hPa 1.4 m/s 0.9 mm
13:00 3.9° 1014.0 hPa 0.5 m/s 0.9 mm
19:00 1.0° 1016.1 hPa 0.5 m/s 1.4 mm
 07:32     17:26    Daglengte: 9:54 Zondag 07 Feb
01:00 -1.3° 1017.6 hPa 0.9 m/s 0.9 mm
07:00 -2.2° 1018.0 hPa 0.8 m/s 0.8 mm
13:00 3.0° 1016.7 hPa 1.0 m/s 0.9 mm
19:00 -0.1° 1018.7 hPa 0.5 m/s 1.6 mm
 07:30     17:28    Daglengte: 9:58 Maandag 08 Feb
01:00 -1.7° 1020.0 hPa 0.7 m/s 1.3 mm
07:00 -2.5° 1019.6 hPa 0.8 m/s 0.8 mm
FMI Hirlam - 7.5 km EWN WRFDA - 12 km DWD ICON - 7 km GFS - 25 km Basiskaart






























































Updatetijd (Europe/Amsterdam) Resolutie Lengte Stap
FMI Hirlam 06:15, 12:15, 18:15, 00:15 7.5 km 49h 1h
EWN WRFDA 09:30, 15:30, 21:30, 03:30 12 km 73h 1h
DWD ICON 05:15, 11:15, 17:15, 23:15 7 km 75h 1h
GFS 07:30, 13:30, 19:30, 01:30 25 km 237h 3h
30+ mm
25-30 mm
20-25 mm
15-20 mm
10-15 mm
6-10 mm
4-6 mm
2-4 mm
1-2 mm
0.5-1 mm
0.2-0.5 mm
0.1-0.2 mm
30+ mm
25-30 mm
20-25 mm
15-20 mm
10-15 mm
6-10 mm
4-6 mm
2-4 mm
1-2 mm
0.5-1 mm
0.2-0.5 mm
0.1-0.2 mm
Sneeuwval
Natte sneeuw
Hagel
Vorst
30+ mm
25-30 mm
20-25 mm
15-20 mm
10-15 mm
6-10 mm
4-6 mm
2-4 mm
1-2 mm
0.5-1 mm
0.2-0.5 mm
0.1-0.2 mm
Sneeuwval
Natte sneeuw
Hagel
Vorst
Onweer
50 mm
40 mm
30 mm
26 mm
22 mm
18 mm
14 mm
10 mm
9 mm
8 mm
7 mm
6 mm
5 mm
4.5 mm
4 mm
3.5 mm
3 mm
2.5 mm
2 mm
1.5 mm
1 mm
0.8 mm
0.6 mm
0.4 mm
0.2 mm
0.05 mm
35°
30°
25°
20°
15°
10°
-5°
-10°
-15°
-20°
-25°
-30°
-35°
33> m/s
29 m/s
25 m/s
21 m/s
17 m/s
14 m/s
11 m/s
8 m/s
5 m/s
3 m/s
0 m/s
2600 J/kg
2400 J/kg
2200 J/kg
2000 J/kg
1800 J/kg
1600 J/kg
1400 J/kg
1200 J/kg
1000 J/kg
800 J/kg
600 J/kg
400 J/kg
200 J/kg
70 dBZ
65 dBZ
60 dBZ
55 dBZ
50 dBZ
45 dBZ
40 dBZ
35 dBZ
30 dBZ
25 dBZ
20 dBZ
15 dBZ
10 dBZ
5 dBZ
-1 K
-2 K
-3 K
-4 K
-5 K
-6 K
-7 K
-8 K
-9 K
950 m²/s²
900 m²/s²
850 m²/s²
800 m²/s²
750 m²/s²
700 m²/s²
650 m²/s²
600 m²/s²
550 m²/s²
500 m²/s²
450 m²/s²
400 m²/s²
350 m²/s²
300 m²/s²
250 m²/s²
200 m²/s²
150 m²/s²
100 m²/s²
46 m/s
44 m/s
42 m/s
40 m/s
38 m/s
36 m/s
34 m/s
32 m/s
30 m/s
28 m/s
26 m/s
24 m/s
22 m/s
20 m/s
16 m/s
12 m/s
8 m/s
4 m/s
30 m/s
28 m/s
26 m/s
24 m/s
22 m/s
20 m/s
18 m/s
16 m/s
14 m/s
12 m/s
10 m/s
8 m/s
6 m/s
4 m/s
2 m/s
3.0
2.8
2.6
2.4
2.2
2.0
1.8
1.6
1.4
1.2
1.0
0.8
0.6
0.4
0.2
15
14
13
12
11
10
9
8
7
6
5
4
3
2
1
90%
80%
70%
60%
50%
40%
30%
20%
10%
42
40
38
36
34
32
30
28
26
24
22
20
18
16
14
12
90+ cm
80-90 cm
70-80 cm
60-70 cm
50-60 cm
40-50 cm
30-40 cm
20-30 cm
10-20 cm
1-10 cm
Sneeuwval
Natte sneeuw
Regen
>120 mm
115 mm
110 mm
105 mm
100 mm
95 mm
90 mm
85 mm
80 mm
75 mm
70 mm
65 mm
60 mm
55 mm
50 mm
45 mm
45 mm
40 mm
35 mm
30 mm
25 mm
20 mm
15 mm
10 mm
5 mm
0.1 mm
960 hPa
880 hPa
800 hPa
720 hPa
640 hPa
560 hPa
584 gpdm
568 gpdm
552 gpdm
536 gpdm
520 gpdm
504 gpdm
488 gpdm
Extreem zwaar Noodweer Kans op onweer
15% 15% 5% 50% 15%

Dag




Kaart






35°
30°
25°
20°
15°
10°
-5°
-10°
-15°
-20°
-25°
-30°
-35°
33> m/s
29 m/s
25 m/s
21 m/s
17 m/s
14 m/s
11 m/s
8 m/s
5 m/s
3 m/s
0 m/s
Extreem zwaar Noodweer Kans op onweer
15% 15% 5% 50% 15%
>120 mm
115 mm
110 mm
105 mm
100 mm
95 mm
90 mm
85 mm
80 mm
75 mm
70 mm
65 mm
60 mm
55 mm
50 mm
45 mm
45 mm
40 mm
35 mm
30 mm
25 mm
20 mm
15 mm
10 mm
5 mm
0.1 mm
Onweer risico kaarten - De groene en gele kleur geeft de kans op onweer aan binnen 40 km van een punt. Oranje, rood en violet hebben hetzelfde niveau zoals je het ziet op estofex.org waaronder ook de kans op hagel en supercells.

dBZ - dBZ staat voor decibel ten opzichte van Z.

Cape - Convective available potential energy (CAPE), is de totale hoeveelheid energie die een luchtpakketje nodig heeft om zover mogelijk te stijgen in de atmosfeer.

K Index - K-Index wordt berekend door de Vertical Totals (VT) en het verschil tussen de 850 hPa temperatuur en de 700 hPa dauwpuntsdepressie (Tdd 700) bij elkaar op te tellen.

TT Index - Convectie index wordt gebruikt voor het voorspellen van zware buien of onweer.

WRF - The Weather Research and Forecasting (WRF) is een volgende generatie mesoscale numeriek weersvoorspelling systeem ontworpen om zowel de operationele planning als het atmosferisch onderzoek te dienen. WRF is a cooperatie tussen het National Center for Atmospheric Research (NCAR), National Centers for Environmental Prediction (NCEP), Forecast Systems Laboratory (FSL), Air Force Weather Agency (AFWA), Naval Research Laboratory, University of Oklahoma, en de Federal Aviation Administration (FAA). Deze software draait op onze server.

WRFDA - Een meer geavanceerde versie van WRF

Arome - Het 2.5 km Arome model. Verzorgd door het Noors Meteorologisch Instituut.

MET Norway - De proff-default 4km meteorological data is een beste keus selectie van meteorologische modellen gebruikt door met.no die zijn geïnterpoleerd tot een gemeenschappelijke dataset. Verzorgd door het Noorse Meteorologisch Instituut.

SMHI - Het Hirlam model verzorgd door het Zweeds meteorologisch instituut.

FMI - Het Hirlam model verzorgd door het Fins meteorologisch instituut. Dekking alleen Finland.

GFS - Het Global Forecast Systeem (GFS) is een wereldwijd numerieke weersvoorspelling computermodel, gerund door NOAA.

GEM-GDPS - Het GEM-GDPS is a wereldwijd numeriek weersvoorspelling computermodel verzorgd door het Canadees Meteorologisch Centrum.

Credits/Info: Dank aan Stefan Gofferje van sääkeskus.fi voor enkele formules van GrADS. Info: Wikipedia.

Betrouwbaarheid van de verwachting

NB! 2015-03-29: Rebuilding the accuracy-test!

EWNACC
Day 1 Good forecasts

Dag 1 Tmax

Dag 2 Tmax

Geladen verwachtingen TOP 50

Totaal geladen verwachtingen:
Plaats Latitude Longitude Verwachtingen Plaats Latitude Longitude Verwachtingen